DRUMS TARGET-1 (55685 NORAD) Tracking and Keplerian Element Data

This shows tracking and keplerian element data for the satellite.

Feedback or suggestion? Click here.




ElementValue
Catalog55685
NameDRUMS TARGET-1
Epoch Orbit536
Epoch Day84.94255788
Epoch Year2023
RAAN140.8623
Inclination97.4921
Eccentricity0.0018721
Argument of Perigee345.9761
Mean Anonmoly14.0936
Mean Motion15.059265
Decay Rate0.00030091
L11 55685U 21102M 23084.94255788 .00030091 00000+0 20576-2 0 9994
L22 55685 97.4921 140.8623 0018721 345.9761 14.0936 15.05926500 5361



Live tracking and technical data element details for DRUMS TARGET-1 (NORAD 55685). DRUMS TARGET-1 can be tracked NOW for your location showing map with azimuth and elevation plus other details from your city location.







IsCatalogInMostPopularTable: catalog: 55685, numindb: 5
Update: records affected: 1



GetName: 55685 DRUMS TARGET-1

Hit Count: updated at: Tue, 28 Mar 2023 02:28:49 GMT